Location: Newark
(33.7333°N, 7.5167°E)
Time: 08:05:50
(UTC+00:00)

Envisat - Visible Passes

Search period start: 22 November 2019 00:00
Search period end: 02 December 2019 00:00
Orbit: 764 x 766 km, 98.1° (Epoch: 22 November)

Date Brightness Start Highest point End Pass type
(mag) Time Alt. Az. Time Alt. Az. Time Alt. Az.
22 Nov 3.4 17:03:36 10° SE 17:08:20 41° ENE 17:13:05 10° N visible
22 Nov 5.6 18:44:00 10° SW 18:47:28 18° W 18:50:56 10° NW visible
23 Nov 5.9 05:17:17 10° NE 05:20:55 20° E 05:24:32 10° SE visible
23 Nov 4.1 18:05:41 10° S 18:10:30 44° W 18:15:21 10° NNW visible
24 Nov 2.9 17:28:40 10° SSE 17:33:43 77° ENE 17:38:48 10° N visible
25 Nov 4.9 05:41:53 10° NNE 05:46:34 36° E 05:51:11 10° SSE visible
25 Nov 3.7 16:52:40 10° SE 16:57:07 32° ENE 17:01:35 10° N visible
25 Nov 5.3 18:32:05 10° SSW 18:36:06 24° W 18:40:10 10° NW visible
26 Nov 6.1 05:06:43 10° ENE 05:09:34 15° E 05:12:23 10° SE visible
26 Nov 3.6 17:54:14 10° S 17:59:12 57° W 18:04:13 10° NNW visible
27 Nov 3.0 17:17:31 10° SSE 17:22:29 59° ENE 17:27:28 10° N visible
27 Nov 6.1 18:59:41 10° WSW 19:01:48 12° W 19:03:56 10° WNW visible
28 Nov 5.4 05:30:54 10° NE 05:35:14 28° E 05:39:32 10° SSE visible
28 Nov 4.0 16:41:51 10° ESE 16:45:57 25° ENE 16:50:02 10° NNE visible
28 Nov 4.8 18:20:20 10° SSW 18:24:46 31° W 18:29:15 10° NW visible
29 Nov 6.4 04:56:43 10° ENE 04:58:10 11° E 04:59:38 10° ESE visible
29 Nov 3.2 17:42:52 10° S 17:47:55 75° WSW 17:53:00 10° NNW visible
30 Nov 3.2 17:06:26 10° SE 17:11:15 45° ENE 17:16:05 10° N visible
30 Nov 5.8 18:47:16 10° SW 18:50:26 17° W 18:53:37 10° NW visible
01 Dec 5.8 05:20:02 10° NE 05:23:54 22° E 05:27:44 10° SE visible
01 Dec 4.3 18:08:43 10° SSW 18:13:27 40° W 18:18:13 10° NNW visible
